Temp
-3 -2 -2 -3 -4 -5 -4 -5 -6 -6 -5 -5 -5 -5 -4 -4 -4 -3 -2 -2 -1 -1 -1 -1 -1 -0 -0 1 -0 -2 -3 -3 -3 -2 -1 -1 -2 -3 -3 -4 -2 -3 -3 -2
-6 -5 -5 -6 -7 -7 -7 -7 -6 -7 -7 -5 -5 -5 -4 -4 -4 -4 -3 -3 -2 -2 -2 -2 -1 -1 1 0 -1 -2 -3 -3 -3 -0 -1 -1 -3 -2 -2 -3 -4 -4 -3 -1
-8 -8 -8 -8 -8 -8 -8 -8 -8 -8 -7 -7 -6 -6 -5 -5 -5 -4 -4 -4 -3 -3 -2 -2 -1 -2 0 -0 -1 -2 -3 -4 -3 -2 -1 -2 -3 -3 -3 -3 -4 -3 -2 -1
-9 -9 -9 -9 -9 -9 -8 -8 -8 -8 -8 -7 -7 -6 -6 -6 -6 -5 -4 -5 -5 -4 -4 -2 -3 -1 -1 -1 -1 -2 -3 -4 -3 -3 -3 -3 -4 -3 -3 -3 -3 -3 -2 -2
-10 -10 -10 -9 -9 -9 -9 -8 -7 -8 -7 -8 -7 -7 -6 -6 -6 -6 -5 -5 -5 -4 -3 -2 -2 -2 -2 -2 -2 -2 -3 -3 -4 -3 -2 -3 -3 -2 -3 -1 -2 -2 -2 -2
-10 -10 -10 -9 -9 -9 -9 -9 -9 -8 -8 -8 -8 -8 -7 -7 -7 -6 -7 -6 -6 -4 -4 -4 -4 -3 -3 -3 -3 -3 -5 -4 -5 -4 -2 -1 -1 -1 -1 -1 -2 -2 -2 -2
-10 -10 -10 -10 -10 -9 -10 -9 -9 -9 -8 -8 -7 -7 -8 -8 -7 -7 -7 -6 -6 -5 -5 -5 -4 -3 -3 -3 -2 -2 -5 -5 -5 -5 -3 -0 -1 -0 -1 -1 0 -1 -2 -2
-10 -10 -10 -10 -10 -10 -10 -10 -10 -9 -9 -9 -8 -8 -8 -8 -9 -8 -7 -5 -6 -7 -6 -6 -5 -4 -3 -2 -2 -2 -3 -5 -5 -4 -3 -1 0 -0 -1 -1 1 -0 -1 -1
-11 -11 -10 -10 -10 -10 -10 -10 -11 -10 -10 -8 -8 -9 -9 -9 -8 -9 -8 -7 -6 -7 -7 -6 -5 -3 -2 -1 -2 -1 -3 -5 -5 -4 -4 -1 -0 0 -1 -0 -1 -1 -1 -0
-12 -12 -12 -11 -10 -10 -10 -10 -10 -12 -10 -7 -8 -8 -8 -9 -8 -8 -7 -8 -8 -7 -7 -6 -5 -3 -1 -2 -2 -2 -5 -7 -6 -5 -4 -2 0 -0 -1 -1 -0 -1 -1 -0
-12 -12 -12 -12 -12 -11 -11 -10 -11 -12 -11 -7 -9 -9 -8 -8 -8 -7 -8 -7 -7 -7 -7 -6 -4 -3 -2 -2 -1 0 -0 -3 -4 -5 -5 -3 0 -0 -1 -0 0 -0 -0 -0
-13 -12 -12 -12 -12 -12 -11 -10 -11 -12 -11 -7 -8 -8 -8 -8 -8 -8 -8 -7 -8 -7 -7 -6 -5 -3 -3 -2 -1 -1 -1 -0 -0 0 1 1 1 0 -0 -0 0 0 0 0
-13 -13 -12 -12 -12 -12 -12 -10 -10 -11 -10 -9 -8 -6 -6 -8 -8 -8 -8 -7 -7 -7 -6 -5 -4 -4 -3 -2 -2 -1 -0 -0 -0 1 1 1 1 0 -0 -0 -0 0 0 0
-14 -13 -13 -12 -12 -12 -11 -11 -10 -10 -10 -10 -7 -7 -7 -8 -8 -8 -8 -8 -8 -7 -6 -6 -5 -4 -3 -3 -2 -0 -1 0 0 1 1 0 1 1 -0 -0 -0 0 0 0
-14 -14 -13 -12 -12 -12 -11 -10 -9 -9 -10 -9 -8 -8 -8 -8 -8 -8 -8 -8 -7 -7 -6 -6 -6 -4 -3 -2 -2 -1 -0 0 1 0 1 0 0 0 -0 -0 0 0 0 1
-15 -14 -13 -13 -12 -12 -11 -9 -9 -9 -9 -10 -10 -8 -8 -8 -8 -8 -8 -7 -7 -7 -7 -7 -6 -5 -4 -3 -3 -1 -0 -0 -0 0 1 0 0 0 0 -0 0 0 0 0
-15 -14 -14 -13 -12 -12 -12 -10 -10 -10 -10 -11 -8 -8 -8 -7 -8 -7 -7 -7 -7 -7 -7 -7 -6 -5 -4 -4 -3 -2 -1 -0 0 -0 0 0 0 0 0 0 -0 -0 0 -0
-15 -15 -14 -13 -12 -12 -11 -10 -10 -10 -10 -10 -8 -8 -7 -8 -7 -7 -7 -7 -7 -7 -7 -6 -6 -5 -5 -5 -3 -2 -1 -1 -1 -1 -1 -0 0 0 0 0 0 -0 -0 -0
-15 -15 -14 -13 -12 -11 -10 -10 -9 -10 -10 -9 -8 -8 -7 -7 -7 -7 -7 -7 -7 -7 -7 -6 -6 -6 -5 -4 -3 -2 -1 -1 -0 -0 0 0 0 0 0 1 1 0 -0 -0
-15 -15 -15 -13 -11 -11 -10 -9 -10 -10 -9 -9 -8 -7 -7 -6 -6 -7 -7 -7 -7 -7 -7 -6 -7 -6 -4 -4 -3 -2 -2 -1 -1 -0 -0 -0 -0 0 -0 0 1 1 0 -0
-16 -15 -15 -13 -12 -11 -11 -10 -9 -9 -9 -9 -8 -7 -7 -7 -7 -7 -8 -7 -7 -7 -6 -7 -6 -5 -3 -2 -3 -2 -2 -2 -2 -2 -1 -1 -1 -0 -0 0 1 1 -0 -1
-16 -16 -15 -12 -11 -11 -10 -10 -8 -8 -8 -8 -8 -8 -7 -7 -8 -8 -8 -8 -7 -6 -6 -6 -6 -4 -3 -2 -2 -1 -1 -1 -1 -1 -1 -1 -1 -1 -0 -0 0 0 -0 -1
-16 -16 -14 -12 -11 -11 -10 -9 -8 -8 -8 -7 -7 -7 -7 -8 -8 -8 -8 -7 -7 -7 -7 -6 -4 -3 -3 -2 -2 -1 -1 -1 -1 -1 -1 -1 -1 -1 -1 -0 -0 -0 -1 -1
-16 -15 -13 -12 -11 -10 -9 -9 -9 -8 -7 -7 -7 -7 -8 -8 -8 -8 -7 -7 -7 -6 -8 -5 -4 -3 -2 -2 -2 -2 -2 -2 -2 -2 -2 -2 -2 -1 -1 -1 -1 -1 -2 -2
-16 -14 -13 -12 -11 -10 -10 -10 -9 -8 -8 -8 -8 -8 -7 -8 -7 -7 -7 -7 -6 -7 -5 -4 -3 -3 -3 -3 -3 -3 -3 -3 -3 -3 -2 -2 -2 -2 -2 -2 -2 -3 -3 -3
-16 -15 -13 -12 -11 -10 -9 -9 -9 -9 -8 -8 -8 -8 -8 -8 -7 -7 -6 -7 -6 -4 -4 -4 -4 -3 -3 -4 -4 -4 -4 -4 -4 -3 -3 -3 -3 -3 -3 -3 -3 -4 -4 -3
-15 -14 -13 -12 -11 -10 -9 -10 -9 -9 -9 -9 -8 -7 -7 -7 -7 -7 -6 -5 -5 -5 -5 -5 -5 -5 -4 -4 -4 -4 -4 -5 -5 -5 -4 -4 -4 -4 -4 -3 -3 -4 -4 -4
Height
3055 3058 3060 3061 3063 3066 3068 3071 3073 3075 3080 3087 3080 3077 3083 3086 3085 3090 3093 3093 3092 3094 3096 3092 3092 3089 3087 3085 3084 3082 3081 3077 3070 3065 3060 3058 3056 3055 3055 3052 3042 3038 3031 2999
3050 3051 3052 3055 3058 3061 3064 3063 3065 3067 3073 3072 3071 3074 3078 3078 3078 3083 3085 3086 3087 3088 3089 3091 3086 3083 3083 3082 3081 3080 3078 3074 3069 3059 3058 3054 3052 3052 3051 3048 3042 3031 3027 3000
3044 3045 3047 3050 3052 3057 3059 3060 3059 3059 3061 3063 3065 3069 3070 3071 3071 3075 3078 3078 3082 3082 3082 3084 3081 3079 3078 3077 3077 3075 3074 3069 3068 3062 3055 3054 3046 3043 3044 3042 3036 3024 3015 3001
3041 3042 3044 3046 3048 3051 3054 3053 3051 3052 3052 3052 3058 3062 3062 3065 3065 3069 3071 3070 3073 3077 3077 3078 3076 3076 3075 3071 3071 3070 3070 3062 3061 3055 3051 3046 3040 3037 3034 3034 3027 3024 3006 3004
3038 3039 3039 3042 3043 3045 3047 3049 3048 3050 3049 3051 3054 3053 3051 3055 3062 3064 3064 3065 3071 3070 3067 3073 3075 3073 3072 3069 3065 3065 3063 3058 3055 3046 3044 3040 3034 3031 3029 3025 3021 3017 3011 3002
3034 3035 3037 3038 3038 3041 3041 3043 3043 3043 3042 3045 3046 3044 3045 3047 3053 3054 3055 3060 3061 3060 3064 3068 3068 3069 3066 3065 3061 3060 3059 3056 3054 3043 3040 3035 3029 3027 3025 3021 3017 3014 3009 3001
3028 3030 3032 3033 3034 3034 3035 3036 3038 3037 3032 3036 3036 3038 3041 3042 3044 3045 3049 3053 3053 3056 3057 3056 3056 3056 3055 3055 3054 3055 3054 3053 3053 3042 3038 3033 3027 3025 3022 3017 3012 3010 3007 3000
3021 3022 3024 3026 3028 3028 3029 3030 3031 3029 3022 3026 3026 3031 3031 3033 3035 3034 3039 3040 3047 3050 3052 3051 3051 3050 3047 3043 3045 3044 3046 3049 3049 3045 3039 3029 3022 3022 3020 3015 3010 3006 3005 2998
3014 3014 3015 3017 3020 3021 3021 3022 3022 3021 3017 3011 3021 3021 3022 3022 3022 3024 3022 3030 3037 3041 3042 3044 3039 3040 3041 3037 3033 3032 3036 3041 3045 3042 3039 3029 3023 3020 3017 3012 3008 3006 3003 2998
3009 3008 3009 3009 3011 3012 3012 3013 3013 3012 3007 3004 3008 3006 3008 3015 3013 3011 3015 3019 3022 3027 3029 3033 3032 3032 3033 3031 3026 3027 3030 3034 3034 3037 3035 3024 3020 3018 3015 3014 3013 3005 3001 2997
3003 3003 3003 3003 3004 3003 3003 3003 3003 3002 2997 2990 2993 2996 2997 3002 3001 3003 3007 3011 3007 3015 3017 3022 3023 3022 3023 3024 3021 3019 3022 3024 3026 3030 3030 3022 3017 3016 3015 3012 3007 3003 3000 2997
2996 2996 2997 2998 2998 2997 2996 2993 2993 2994 2987 2975 2980 2981 2984 2988 2992 2997 2999 2999 3002 3003 3005 3010 3014 3015 3015 3016 3015 3014 3018 3017 3016 3018 3015 3015 3014 3013 3012 3008 3005 3002 3000 2997
2988 2988 2989 2991 2991 2991 2989 2984 2986 2983 2978 2970 2966 2964 2972 2972 2973 2983 2987 2986 2991 2991 2996 3001 3004 3006 3009 3007 3006 3008 3007 3009 3011 3012 3012 3011 3011 3010 3009 3007 3004 3002 2999 2996
2978 2979 2980 2982 2983 2982 2979 2976 2979 2976 2973 2962 2955 2956 2957 2959 2962 2969 2977 2982 2984 2988 2990 2987 2994 2999 3000 3000 3000 3002 3002 3004 3005 3006 3007 3008 3008 3007 3006 3005 3002 3000 2998 2996
2968 2970 2971 2973 2974 2973 2970 2969 2971 2968 2966 2957 2952 2951 2951 2954 2956 2962 2968 2972 2976 2978 2980 2981 2988 2992 2995 2994 2995 2994 2997 2999 3001 3002 3003 3004 3004 3005 3004 3002 3000 2998 2998 2996
2959 2961 2961 2963 2964 2964 2960 2958 2962 2960 2955 2950 2947 2944 2944 2945 2949 2954 2960 2965 2968 2972 2975 2979 2983 2986 2991 2990 2988 2990 2993 2995 2996 2996 2997 2999 3001 3001 3001 3000 2999 2997 2997 2996
2951 2951 2952 2953 2954 2953 2952 2952 2955 2953 2948 2945 2942 2937 2938 2941 2944 2948 2954 2959 2963 2966 2970 2974 2977 2981 2982 2982 2982 2986 2988 2989 2991 2991 2991 2994 2997 2997 2997 2997 2996 2996 2995 2995
2941 2942 2943 2943 2944 2942 2942 2945 2943 2942 2940 2939 2936 2933 2934 2936 2940 2944 2950 2955 2960 2961 2964 2968 2971 2975 2976 2973 2976 2981 2983 2986 2987 2988 2989 2991 2992 2993 2993 2993 2994 2993 2992 2993
2933 2933 2933 2933 2934 2934 2935 2935 2934 2935 2934 2931 2926 2928 2930 2934 2938 2941 2946 2950 2955 2957 2960 2964 2968 2966 2964 2968 2972 2975 2978 2980 2981 2982 2984 2985 2986 2988 2989 2989 2989 2989 2989 2989
2926 2926 2926 2925 2927 2928 2928 2926 2925 2924 2920 2922 2919 2920 2925 2930 2933 2937 2944 2946 2950 2952 2956 2959 2958 2953 2959 2964 2967 2970 2972 2974 2975 2976 2978 2979 2981 2982 2984 2984 2985 2984 2984 2985
2918 2918 2918 2920 2922 2922 2922 2919 2916 2912 2911 2910 2912 2915 2921 2926 2931 2934 2938 2941 2944 2949 2952 2954 2950 2946 2950 2957 2961 2964 2966 2968 2970 2971 2973 2974 2975 2977 2978 2979 2979 2979 2979 2979
2913 2912 2911 2913 2916 2916 2915 2911 2906 2902 2904 2902 2908 2913 2918 2923 2928 2931 2934 2938 2942 2944 2945 2946 2941 2942 2946 2950 2953 2956 2958 2960 2962 2965 2967 2969 2970 2971 2972 2973 2973 2973 2973 2974
2908 2908 2906 2907 2909 2907 2906 2903 2898 2897 2896 2898 2901 2908 2915 2919 2925 2928 2932 2934 2936 2938 2938 2934 2935 2939 2940 2943 2947 2950 2952 2954 2956 2958 2960 2962 2963 2965 2967 2967 2967 2967 2968 2969
2905 2904 2903 2901 2899 2897 2897 2897 2894 2894 2896 2897 2901 2906 2911 2915 2919 2923 2927 2929 2932 2931 2928 2928 2931 2934 2936 2938 2941 2943 2946 2948 2951 2953 2955 2957 2958 2959 2960 2960 2961 2961 2962 2964
2901 2899 2896 2893 2892 2892 2892 2892 2891 2891 2894 2896 2901 2906 2910 2912 2916 2919 2921 2923 2921 2918 2920 2924 2927 2930 2932 2934 2937 2939 2941 2944 2947 2949 2952 2953 2954 2955 2955 2956 2957 2958 2960 2962
2896 2893 2890 2889 2890 2890 2890 2889 2887 2889 2892 2896 2901 2903 2906 2908 2910 2912 2914 2916 2914 2915 2916 2919 2922 2926 2929 2932 2934 2936 2939 2942 2944 2947 2949 2951 2952 2952 2952 2953 2954 2956 2959 2961
2889 2888 2887 2887 2887 2887 2886 2885 2886 2888 2891 2895 2899 2900 2902 2904 2906 2908 2910 2911 2911 2912 2914 2917 2920 2924 2927 2930 2933 2935 2937 2940 2942 2945 2947 2949 2950 2951 2952 2953 2954 2955 2957 2959
Wind_Speed
26 30 33 31 30 26 30 33 38 39 35 30 39 45 41 33 32 30 27 31 32 26 17 16 14 16 13 19 19 15 9 10 21 26 20 12 12 14 15 9 12 24 25 35
18 22 22 22 21 16 19 29 35 34 30 34 42 44 35 32 38 31 27 29 27 23 22 17 16 15 20 19 15 7 10 6 16 17 7 9 8 16 22 24 23 31 20 24
13 11 12 13 18 17 18 20 20 30 35 40 37 40 41 41 38 35 31 33 30 30 29 24 26 20 25 21 21 22 19 15 17 20 27 28 33 29 22 20 20 30 35 41
9 13 11 12 15 16 23 24 26 26 23 38 43 36 44 36 37 36 34 26 28 27 23 22 27 29 26 27 20 19 19 19 19 28 30 31 29 28 25 20 25 28 42 40
11 9 13 17 17 18 23 26 24 29 23 27 37 29 47 34 29 34 25 29 24 27 34 28 20 18 18 16 20 17 20 20 19 36 21 16 27 24 22 19 20 23 23 30
16 14 14 14 18 21 24 26 28 32 36 30 33 35 45 42 30 38 37 29 27 33 30 27 29 28 25 20 20 18 16 15 11 13 16 28 13 3 10 18 16 15 21 29
23 21 19 18 19 22 25 27 25 29 39 38 44 43 38 34 38 39 35 20 25 26 26 28 30 30 34 34 32 29 20 15 11 17 18 4 5 12 13 18 15 16 24 27
23 25 25 22 22 22 24 26 31 32 37 32 38 40 40 40 40 42 41 48 45 30 37 28 19 17 29 36 36 34 31 19 9 7 9 20 4 7 15 20 16 14 25 26
19 21 25 27 26 27 29 30 30 33 40 47 46 43 43 40 42 41 45 38 38 37 36 28 29 27 18 12 9 20 22 23 14 7 5 4 5 14 19 18 6 10 24 23
15 16 18 21 25 29 30 30 31 29 39 43 45 54 53 44 42 45 49 36 41 43 45 37 30 30 20 13 11 12 17 17 23 17 9 12 11 11 17 5 7 19 20 20
20 18 17 16 16 18 23 26 27 26 36 46 44 45 44 43 38 37 32 27 41 39 35 38 26 26 25 21 15 18 20 16 13 13 10 9 6 14 10 14 14 17 15 17
25 25 23 19 18 17 19 24 23 21 35 51 42 41 44 45 49 45 38 42 36 26 32 33 29 29 21 23 15 29 18 19 10 13 6 8 14 13 13 14 15 12 12 14
28 27 27 24 22 20 21 25 22 26 36 41 40 48 45 47 40 45 42 39 36 24 36 24 25 18 27 19 23 18 26 22 24 18 13 11 11 18 14 14 14 11 11 12
29 29 29 27 27 24 24 26 22 29 31 39 44 43 35 28 29 45 39 39 39 40 33 26 20 22 22 15 21 21 25 20 22 23 20 16 13 10 11 14 14 12 11 10
28 28 29 28 28 27 28 26 25 29 32 28 25 30 38 32 26 35 37 41 36 28 26 34 31 26 22 21 22 28 23 21 18 17 16 13 12 12 11 12 10 10 7 7
26 28 26 24 26 28 30 28 22 16 22 36 43 43 33 36 36 34 37 36 37 33 28 21 26 26 25 14 21 25 18 19 20 22 20 18 13 10 9 9 8 8 7 5
27 27 26 23 25 27 29 27 25 26 18 32 20 27 24 26 34 33 38 34 29 23 23 25 26 27 26 26 28 16 10 12 15 13 13 16 11 9 9 9 9 9 8 6
25 26 25 26 26 28 31 25 25 21 27 20 19 17 17 26 31 36 43 41 31 25 25 27 30 29 30 28 36 30 26 23 20 17 17 18 17 14 13 12 14 13 10 10
23 25 23 26 25 28 29 28 22 23 30 16 17 30 23 25 34 33 27 32 30 24 27 30 30 32 24 27 30 27 20 19 19 18 21 26 25 22 18 16 16 16 14 13
23 22 20 20 21 24 25 21 23 26 31 34 21 26 23 24 31 33 37 32 23 13 28 26 31 40 39 34 28 22 18 17 18 22 22 20 19 20 18 16 16 18 16 15
20 21 21 17 16 20 20 12 16 16 15 34 21 29 29 30 35 31 28 13 20 14 18 19 20 35 38 33 31 30 27 26 23 18 15 17 19 20 20 19 19 20 18 16
14 18 17 13 14 10 9 12 11 11 13 15 37 25 27 24 34 23 18 16 13 10 17 19 21 30 29 23 19 26 28 27 27 26 24 22 22 21 20 20 21 21 18 17
14 15 7 6 10 14 10 12 10 11 14 20 26 31 26 28 30 15 14 9 11 9 10 9 20 19 19 23 23 21 20 21 22 22 23 22 20 20 19 20 22 19 18 17
13 9 8 8 8 10 16 17 9 10 8 20 23 28 27 20 23 9 14 12 9 14 11 12 14 16 19 20 16 19 21 21 21 19 15 13 14 16 18 18 16 15 14 15
13 7 7 12 14 12 14 17 13 15 9 21 28 34 20 24 12 9 9 11 10 10 19 16 13 17 17 17 16 16 16 16 15 13 11 12 13 13 13 12 11 10 11 13
14 9 10 10 11 11 15 18 11 13 17 21 31 13 11 14 8 12 8 6 6 12 15 21 21 18 16 15 15 13 11 10 10 10 9 8 6 5 4 6 9 11 11 13
9 9 13 15 15 14 13 12 5 13 22 32 18 9 10 8 11 8 9 7 5 8 11 14 13 14 13 12 11 10 9 9 10 11 12 10 8 6 4 3 4 6 8 9
Wind_Direction
262 258 254 250 253 254 240 239 236 249 249 243 241 248 249 258 267 268 255 258 258 259 269 273 271 266 269 289 293 295 289 280 286 292 305 285 292 271 284 287 298 294 290 288
260 255 253 251 241 230 238 239 239 245 238 241 247 247 253 254 266 265 262 259 260 266 263 264 269 272 285 290 283 277 286 272 304 318 289 308 305 292 288 287 284 279 289 287
254 249 250 249 242 220 237 246 242 241 241 239 249 249 255 256 263 272 266 259 257 261 262 255 267 268 282 284 287 285 284 269 254 265 286 296 297 298 292 284 275 282 281 296
272 241 225 228 233 220 226 235 240 246 247 245 243 254 258 257 259 264 261 252 249 252 257 262 262 279 277 285 280 275 270 272 274 279 285 292 288 292 297 280 275 274 291 303
261 254 233 231 234 225 228 230 246 253 245 255 249 249 246 250 249 257 262 270 262 265 262 259 264 287 274 275 276 271 269 272 291 295 307 293 298 296 285 291 290 288 301 308
267 267 254 241 235 231 236 238 247 257 256 258 253 255 254 263 271 264 258 257 261 255 263 264 265 266 257 252 263 273 263 279 302 281 299 313 301 284 297 307 298 293 315 325
265 265 261 252 247 242 239 242 248 256 260 257 257 265 263 261 266 262 257 255 265 268 269 262 272 262 257 256 259 263 253 266 264 283 318 260 291 308 325 324 314 280 325 339
268 265 261 252 249 251 251 244 240 248 259 263 258 267 268 270 262 261 263 258 264 271 281 270 266 259 259 259 260 256 252 238 256 266 288 291 321 304 337 334 321 300 331 340
273 271 266 261 254 253 255 256 259 261 263 258 259 265 265 266 274 264 262 269 262 247 255 254 239 238 243 239 231 233 231 217 218 230 267 272 312 305 325 331 304 328 334 341
276 279 276 266 259 258 261 261 261 257 265 274 263 254 262 270 278 263 269 261 248 236 244 236 229 232 233 228 208 201 193 205 219 231 255 272 286 298 325 317 306 320 334 340
264 270 278 282 275 272 269 265 267 260 270 279 267 257 259 260 271 258 262 244 234 238 233 222 220 228 230 232 229 225 218 192 198 199 223 268 266 317 327 321 327 307 327 338
270 267 269 278 284 286 290 276 279 268 269 277 274 264 256 258 263 262 255 251 250 245 235 215 223 232 226 227 230 231 218 211 217 209 230 257 292 298 315 329 333 338 337 338
262 266 267 267 278 289 293 288 291 276 277 273 273 268 274 266 239 241 244 234 243 241 219 216 209 223 225 222 222 225 225 224 229 237 256 265 269 292 295 316 321 330 335 339
261 261 264 264 269 283 292 291 287 273 276 271 273 278 277 270 245 236 236 244 252 250 223 211 212 226 235 222 226 228 231 227 233 249 256 267 283 279 296 311 307 315 331 335
263 261 261 262 265 275 285 287 280 271 261 255 279 291 261 258 242 232 230 236 240 249 227 215 219 237 239 236 236 232 230 232 241 257 258 259 266 284 293 316 309 304 325 332
265 263 261 262 264 271 286 286 279 281 264 256 259 257 265 246 244 238 221 225 234 242 220 214 220 228 235 247 243 240 233 248 252 253 257 249 246 277 289 315 329 302 305 315
268 265 261 257 259 267 274 275 287 287 258 228 254 234 251 247 242 223 212 214 216 209 213 222 229 232 231 241 248 238 229 238 238 242 237 209 229 277 297 300 319 321 289 282
267 264 261 256 258 265 265 277 281 252 239 252 246 239 228 223 216 213 214 220 216 207 216 226 232 239 244 253 251 252 250 251 246 247 239 233 241 272 279 290 305 308 294 271
270 266 265 258 260 265 271 282 258 252 252 235 226 223 216 204 210 199 198 205 208 219 224 231 237 240 236 247 253 251 251 251 251 250 248 251 252 259 265 276 292 302 289 261
267 264 267 266 261 268 281 265 254 255 233 221 230 222 214 205 210 215 217 221 215 221 231 238 242 247 245 242 245 249 257 255 251 249 247 248 246 244 252 268 283 296 294 260
262 260 255 247 256 271 275 264 235 205 213 216 217 212 210 208 202 203 206 192 197 223 235 226 241 248 247 244 246 251 252 252 250 243 243 247 243 244 256 269 279 287 286 260
253 265 261 244 254 247 225 254 231 196 211 214 217 207 205 209 204 194 181 185 177 212 217 214 240 249 250 252 250 245 245 247 246 245 249 250 253 260 259 263 271 277 274 261
243 258 249 221 205 219 223 251 241 206 204 206 196 196 206 197 193 187 179 189 204 201 203 219 234 239 250 249 242 238 237 234 238 245 253 256 253 251 258 266 270 270 264 247
239 224 232 221 210 214 225 247 258 205 220 205 201 196 184 184 181 163 190 206 189 210 217 226 235 250 244 235 223 223 228 232 237 241 242 242 248 254 257 259 262 261 245 225
231 225 234 229 227 235 265 285 267 204 195 189 189 192 190 169 170 185 175 174 211 218 227 228 235 233 229 223 218 219 223 224 224 221 232 246 250 251 251 249 246 233 218 211
239 235 234 245 247 245 265 280 261 200 196 186 186 176 168 177 183 177 190 200 213 208 210 207 216 211 207 200 201 202 202 208 214 214 215 213 210 217 234 239 226 217 211 208
223 243 248 268 266 260 276 276 222 185 193 183 181 177 178 175 205 193 182 206 208 203 196 189 181 183 192 197 203 212 213 206 198 197 200 207 213 223 233 245 223 202 217 226